Regional Weather Roundup
Issued by NWS Boston, MA

Current Version | Previous Version | Text Only | Print | Product List | Glossary Off
Versions: 1 2 3 4 5 6 7 8 9 10 11 12 13 14 15 16 17 18 19 20 21 22 23 24 25 26 27 28 29 30 31 32 33 34 35 36 37 38 39 40 41 42 43 44 45 46 47 48 49 50
000 ASUS41 KBOX 231210 RWRBOX REGIONAL WEATHER ROUNDUP NATIONAL WEATHER SERVICE TAUNTON MA 800 AM EDT TUE MAY 23 2017 NOTE: "FAIR" INDICATES FEW OR NO CLOUDS BELOW 12,000 FEET WITH NO SIGNIFICANT WEATHER AND/OR OBSTRUCTIONS TO VISIBILITY. MAZALL-231300- EASTERN MASSACHUSETTS CITY SKY/WX TMP DP RH WIND PRES REMARKS BOSTON CLOUDY 55 52 89 NW8 29.94F 6HR MIN TEMP: 53; 6HR MAX TEMP: 56; 6HR PCP: TRACE; BEVERLY CLOUDY 57 53 86 NW9 29.92F LAWRENCE CLOUDY 54 52 93 W6 29.95F BEDFORD CLOUDY 54 49 83 NW7 29.93F BLUE HILL N/A 52 51 97 NW8 29.92F NORWOOD CLOUDY 56 53 90 NW6 29.93F MARSHFIELD CLOUDY 55 54 94 VRB5 29.93F PLYMOUTH CLOUDY 55 52 89 NW8 29.93S TAUNTON CLOUDY 55 52 89 N6 29.93S NEW BEDFORD PTSUNNY 57 55 93 N5 29.91F $$ MAZALL-231300- CAPE COD AND THE ISLANDS CITY SKY/WX TMP DP RH WIND PRES REMARKS FALMOUTH N/A N/A N/A N/A MISG N/A HYANNIS CLOUDY 55 54 96 N13 29.88F CHATHAM CLOUDY 57 57 100 CALM 29.92F PROVINCETOWN CLOUDY 53 52 96 NW9 29.93F NANTUCKET CLOUDY 56 55 97 N10 29.91R MARTHAS VNYRD CLOUDY 60 58 92 N5 29.90S $$ MAZALL-231300- CENTRAL AND WESTERN MASSACHUSETTS CITY SKY/WX TMP DP RH WIND PRES REMARKS WORCESTER CLOUDY 55 47 74 N7 29.94F 6HR MIN TEMP: 49; 6HR MAX TEMP: 55; FITCHBURG CLOUDY 57 52 83 CALM 29.95F ORANGE MOSUNNY 52 51 97 CALM 29.95F SPRINGFIELD PTSUNNY 52 51 98 N5 29.95R WESTFIELD CLOUDY 52 52 100 CALM 29.96R NORTH ADAMS CLOUDY 53 46 77 SW7 29.96F PITTSFIELD CLOUDY 52 45 77 W3 29.95S $$ RIZALL-231300- RHODE ISLAND CITY SKY/WX TMP DP RH WIND PRES REMARKS PROVIDENCE CLOUDY 57 55 93 N7 29.94R 6HR MIN TEMP: 54; 6HR MAX TEMP: 58; NEWPORT CLOUDY 55 54 96 N8 29.92S BLOCK ISLAND CLOUDY 57 56 96 N5 29.94R WESTERLY MOSUNNY 60 56 86 NW8 29.94R $$ CTZALL-231300- CONNECTICUT CITY SKY/WX TMP DP RH WIND PRES REMARKS BRADLEY INTL PTSUNNY 54 52 93 N5 29.96S 6HR MIN TEMP: 49; 6HR MAX TEMP: 54; HARTFORD SUNNY 57 52 83 VRB5 29.96R BRIDGEPORT MOSUNNY 61 50 67 N7 29.96R DANBURY MOSUNNY 55 48 77 NE6 29.97S GROTON SUNNY 60 53 77 N7 29.93S NEW HAVEN PTSUNNY 57 50 77 N7 29.95R CHESTER FAIR 57 52 82 N8 29.94S MERIDEN SUNNY 56 50 80 NW9 29.95S WILLIMANTIC MOSUNNY 57 53 86 N6 29.96R OXFORD PTSUNNY 55 45 67 NE9 29.97S $$ MEZ002-015-021-024-NHZ003-005-008-011-012-014-VTZ005-008-231300- NORTHERN NEW ENGLAND CITY SKY/WX TMP DP RH WIND PRES REMARKS PORTLAND ME CLOUDY 51 49 92 NW6 29.94R 6HR MIN TEMP: 50; 6HR MAX TEMP: 51; BANGOR ME CLOUDY 48 46 93 W3 29.92F CONCORD NH CLOUDY 53 50 89 CALM 29.94S MANCHESTER NH CLOUDY 53 48 83 NW3 29.93F NASHUA NH CLOUDY 52 50 93 N5 29.95S PORTSMOUTH NH CLOUDY 51 49 93 NW6 29.93R JAFFREY NH CLOUDY 55 52 89 VRB3 29.95S KEENE NH CLOUDY 52 48 87 CALM 29.96S BURLINGTON VT PTSUNNY 57 49 74 VRB5 29.93F MT. WASHINGTON FOG 30 30 100 NW40 N/A VSB 1/16WCI 13 $$ NYZ052-076-231300- EASTERN NEW YORK CITY SKY/WX TMP DP RH WIND PRES REMARKS ALBANY CLOUDY 54 47 77 N5 29.97F 6HR MIN TEMP: 46; 6HR MAX TEMP: 56; NEW YORK CITY CLOUDY 60 51 72 NE6 29.95F 6HR MIN TEMP: 59; 6HR MAX TEMP: 61; $$ ANZALL-231300- MARINE OBSERVATIONS STATION/POSITION TIME TEMP WIND PRES VSBY WAVE AIR SEA DIR/SP/G HT/PER (UTC) (F) (DEG/KT/KT) (MB) (MI) (FT/S) BOSTON BUOY 1050 53 53 310/ 6/ 8 1013.1 2/ 4 BUZZARDS BAY 1100 56 350/ 12/ 12 1013.5R NANTUCKET SOUND 1150 55 1012.3F 1/ 3 MASS BAY-STELLWA 1104 52 53 300/ 8/ 12 1012.9R 1/ 5 ISLE OF SHOALS 1100 49 320/ 8/ 9 1013.3R S OF BLOCK IS 1155 53 N/A 3/ 6 $$ ......................KEY......................... SKY/WX - SKY CONDITION/PRESENT WEATHER TMP - TEMPERATURE IN FAHRENHEIT DWPT - DEWPOINT IN FAHRENHEIT RH - RELATIVE HUMIDITY IN PERCENT WIND - DIRECTION AND SPEED IN MPH PRES - MEAN SEA LEVEL PRESSURE IN INCHES OF HG WCI - WIND CHILL INDEX VSB - VISIBILITY IN MILES HX - HEAT INDEX TC - TEMPERATURE IN CELSIUS VRB - VARIABLE WIND DIRECTION N/A - NOT AVAILABLE

USA.gov is the U.S. government's official web portal to all federal, state and local government web resources and services.